Flag for Canada Weather past 2 weeks in Miramichi, New Brunswick, Canada

Now
43 °F

Overcast.


Feels Like: 37 °F
Forecast: 21 / 46 °F
Wind: 9 mph from South

Location: Bathurst Airport


UV Index: 3 (Moderate)

Visibility: 15 mi


Pressure: 30.50 "Hg

Humidity: 29%

Dew point: 12 °F

Location of MiramichiLocation

Historic Weather in Miramichi

°F

Miramichi temperature yesterday

Maximum temperature yesterday: 37 °F (at 4:00 PM)
Minimum temperature yesterday: 19 °F (at 2:00 AM)
Average temperature yesterday: 29 °F

Past Weeks' High & Low Weather Summary

 TemperatureHumidityPressure
High57 °F (Apr 15, 3:00 PM)100% (Apr 4, 2:00 AM)30.81 "Hg (Apr 4, 2:00 AM)
Low19 °F (Apr 4, 7:00 AM)26% (Apr 13, 12:00 PM)29.14 "Hg (Apr 9, 4:00 AM)
Average36 °F68%29.96 "Hg
* Reported Apr 3 2:02 PM — Apr 18 2:00 PM, Miramichi, Weather by CustomWeather, © 2014

Note: Actual official high and low records may vary slightly from our data, if they occured in-between our weather recording intervals... More about our weather records

Advertising

Historic Weather Conditions — Data for Previous 24 hours

 ConditionsComfort  
Time TempWeatherWind HumidityBarometerVisibility
2:00 PM
Apr 18
43 °FOvercast.9 mph29%30.50 "Hg15 mi
1:00 PM43 °FOvercast.12 mph26%30.52 "Hg15 mi
12:00 PM41 °FOvercast.8 mph31%30.55 "Hg15 mi
11:00 AM39 °FOvercast.12 mph30%30.60 "Hg15 mi
10:00 AM36 °FOvercast.6 mph41%30.63 "Hg15 mi
9:00 AM30 °FOvercast.6 mph55%30.67 "Hg15 mi
8:00 AM25 °FOvercast.3 mph69%30.69 "Hg15 mi
7:00 AM21 °FPartly cloudy.5 mph74%30.69 "Hg15 mi
6:00 AM23 °FPassing clouds.5 mph68%30.68 "Hg15 mi
5:00 AM25 °FPassing clouds.3 mph59%30.68 "Hg15 mi
4:00 AM25 °FPassing clouds.5 mph63%30.69 "Hg15 mi
3:00 AM27 °FPassing clouds.3 mph54%30.70 "Hg15 mi
2:00 AM28 °FPassing clouds.5 mph51%30.71 "Hg15 mi
1:00 AM30 °FPassing clouds.6 mph47%30.73 "Hg15 mi
12:00 AM30 °FPassing clouds.6 mph51%30.74 "Hg15 mi
11:00 PM
Apr 17
28 °FClear.No wind64%30.75 "Hg15 mi
10:00 PM27 °FPassing clouds.3 mph74%30.76 "Hg15 mi
9:00 PM30 °FPartly sunny.2 mph59%30.75 "Hg15 mi
8:00 PM36 °FPartly sunny.3 mph38%30.76 "Hg15 mi
7:00 PM37 °FPartly sunny.6 mph35%30.76 "Hg15 mi
6:00 PM37 °FPartly sunny.8 mph35%30.76 "Hg15 mi
5:49 PM36 °FPartly sunny.9 mph41%30.76 "Hg15 mi
5:00 PM37 °FOvercast.7 mph35%30.76 "Hg15 mi
4:00 PM37 °FPartly sunny.8 mph35%30.78 "Hg15 mi
3:00 PM36 °FPassing clouds.9 mph41%30.79 "Hg15 mi
Weather by CustomWeather, © 2014

See weather overview